Tracking 22842 objects as of 15-Apr-2021
HD Live streaming from Space Station
objects crossing your sky now

STARLINK-1549

Track STARLINK-1549 now!
10-day predictions
STARLINK-1549 is classified as:


NORAD ID: 46074
Int'l Code: 2020-055AZ
Perigee: 553.4 km
Apogee: 555.4 km
Inclination: 53.1 °
Period: 95.6 minutes
Semi major axis: 6925 km
RCS: Unknown
Launch date: August 7, 2020
Source: United States (US)
Launch site: AIR FORCE EASTERN TEST RANGE (AFETR)
aabbcc
Your satellite tracking list
Your tracking list is empty




NASA's NSSDC Master Catalog

Two Line Element Set (TLE):
1 46074U 20055AZ  21104.55573752  .00000636  00000-0  61585-4 0  9994
2 46074  53.0600 212.8285 0001443 125.8161 234.2962 15.06396913 39486
Source of the keplerian elements: AFSPC